CW1459 Weather Reports


Display with metric or nautical units.
time (UTC)temp
F
wind
direction
speed
MPH
gust
MPH
rain 1hr
in
rain 24hr
in
rain mn
in
humidity
%
barometer
mb
20211202060314 50 182 7.0 13.0 0.00 0.00 0.00 61 1011.5
20211202055335 50 158 7.0 18.0 0.00 0.00 0.00 62 1011.7
20211202054314 50 154 6.0 16.0 0.00 0.00 0.00 62 1011.7
20211202053316 49 179 7.0 17.0 0.00 0.00 0.00 63 1011.9
20211202052312 49 166 9.0 20.0 0.00 0.00 0.00 64 1012.0
20211202051321 49 148 8.0 17.0 0.00 0.00 0.00 64 1012.2
20211202050317 49 167 5.0 17.0 0.00 0.00 0.00 65 1012.3
20211202045312 49 189 5.0 22.0 0.00 0.00 0.00 64 1012.5
20211202044315 49 167 5.0 18.0 0.00 0.00 0.00 65 1012.7
20211202043325 48 142 8.0 20.0 0.00 0.00 0.00 68 1012.7
20211202042330 48 180 6.0 12.0 0.00 0.00 0.00 71 1012.9
20211202041332 48 192 4.0 14.0 0.00 0.00 0.00 72 1013.1
20211202040329 48 211 5.0 20.0 0.00 0.00 0.00 68 1013.4
20211202035314 49 169 4.0 17.0 0.00 0.00 0.00 64 1013.5
20211202034313 49 176 8.0 18.0 0.00 0.00 0.00 64 1013.7
20211202033334 49 146 6.0 14.0 0.00 0.00 0.00 64 1013.6
20211202032338 49 156 7.0 17.0 0.00 0.00 0.00 64 1013.8
20211202031314 50 217 7.0 18.0 0.00 0.00 0.00 62 1014.0
20211202030316 50 141 7.0 21.0 0.00 0.00 0.00 59 1014.2
20211202025328 50 179 7.0 16.0 0.00 0.00 0.00 60 1014.3
20211202024329 50 167 5.0 16.0 0.00 0.00 0.00 62 1014.6
20211202023328 50 175 5.0 22.0 0.00 0.00 0.00 62 1014.8
20211202022323 50 198 3.0 17.0 0.00 0.00 0.00 60 1014.7
20211202021336 50 174 4.0 15.0 0.00 0.00 0.00 59 1014.9
20211202020321 51 136 3.0 15.0 0.00 0.00 0.00 57 1015.0
20211202015316 51 181 4.0 28.0 0.00 0.00 0.00 56 1015.0
20211202014313 51 173 11.0 23.0 0.00 0.00 0.00 56 1015.2
20211202013313 50 159 5.0 20.0 0.00 0.00 0.00 58 1015.3
20211202012314 50 167 7.0 16.0 0.00 0.00 0.00 58 1015.4
20211202011336 50 111 6.0 18.0 0.00 0.00 0.00 57 1015.6
20211202010327 50 170 2.0 12.0 0.00 0.00 0.00 57 1015.7
20211202005322 50 215 1.0 11.0 0.00 0.00 0.00 57 1016.2
20211202004319 50 134 3.0 11.0 0.00 0.00 0.00 56 1016.2
20211202003334 50 124 0.0 11.0 0.00 0.00 0.00 57 1016.3
20211202002333 50 173 1.0 5.0 0.00 0.00 0.00 58 1016.4
20211202001316 50 178 1.0 5.0 0.00 0.00 0.00 58 1016.6
20211202000312 50 174 0.0 3.0 0.00 0.00 0.00 61 1016.5
20211201235335 49 174 0.0 1.0 0.00 0.00 0.00 61 1016.7
20211201234314 49 173 0.0 0.0 0.00 0.00 0.00 63 1016.8
20211201233312 49 178 0.0 0.0 0.00 0.00 0.00 62 1016.8
20211201232313 49 201 0.0 4.0 0.00 0.00 0.00 61 1017.0
20211201231315 50 164 1.0 10.0 0.00 0.00 0.00 60 1017.1
20211201230334 49 188 0.0 4.0 0.00 0.00 0.00 59 1017.2
20211201225325 47 153 0.0 0.0 0.00 0.00 0.00 66 1017.0
20211201224312 46 202 0.0 0.0 0.00 0.00 0.00 67 1017.2
20211201223334 47 202 0.0 0.0 0.00 0.00 0.00 64 1017.0
20211201222323 46 202 0.0 0.0 0.00 0.00 0.00 66 1017.1
20211201221337 46 202 0.0 0.0 0.00 0.00 0.00 66 1017.0
20211201220319 47 202 0.0 0.0 0.00 0.00 0.00 67 1017.1
20211201215338 47 202 0.0 0.0 0.00 0.00 0.00 63 1016.9
20211201214313 47 255 0.0 0.0 0.00 0.00 0.00 65 1017.0
20211201213313 48 255 0.0 0.0 0.00 0.00 0.00 65 1016.8
20211201212325 48 255 0.0 0.0 0.00 0.00 0.00 62 1016.7
20211201211312 49 255 0.0 0.0 0.00 0.00 0.00 61 1016.7
20211201210335 50 255 0.0 0.0 0.00 0.00 0.00 57 1016.7
20211201205318 50 255 0.0 0.0 0.00 0.00 0.00 55 1016.8
20211201204337 50 255 0.0 0.0 0.00 0.00 0.00 54 1017.0
20211201203318 51 255 0.0 0.0 0.00 0.00 0.00 54 1016.9
20211201202313 51 255 0.0 0.0 0.00 0.00 0.00 53 1017.1
20211201201314 51 244 0.0 0.0 0.00 0.00 0.00 54 1017.2
20211201200336 51 254 0.0 0.0 0.00 0.00 0.00 52 1017.2
20211201195313 51 260 0.0 1.0 0.00 0.00 0.00 52 1017.4
20211201194326 51 284 0.0 0.0 0.00 0.00 0.00 51 1017.5
20211201193328 51 254 0.0 0.0 0.00 0.00 0.00 53 1017.5
20211201192333 51 194 0.0 3.0 0.00 0.00 0.00 53 1017.7
20211201191324 51 254 0.0 0.0 0.00 0.00 0.00 54 1018.0
20211201190318 50 227 0.0 0.0 0.00 0.00 0.00 56 1018.2
20211201185318 50 192 0.0 0.0 0.00 0.00 0.00 54 1018.3
20211201184336 50 250 0.0 0.0 0.00 0.00 0.00 55 1018.5
20211201183332 50 203 0.0 0.0 0.00 0.00 0.00 56 1018.6
20211201182338 49 240 0.0 0.0 0.00 0.00 0.00 55 1018.7
20211201181313 49 226 0.0 0.0 0.00 0.00 0.00 56 1018.8
20211201180312 49 242 0.0 0.0 0.00 0.00 0.00 57 1019.0
20211201175330 49 202 0.0 0.0 0.00 0.00 0.00 57 1019.2
20211201174336 48 205 0.0 1.0 0.00 0.00 0.00 57 1019.3
20211201173332 48 194 0.0 5.0 0.00 0.00 0.00 57 1019.3
20211201172321 48 175 0.0 2.0 0.00 0.00 0.00 58 1019.4
20211201171313 48 209 0.0 3.0 0.00 0.00 0.00 59 1019.7
20211201170334 47 213 0.0 0.0 0.00 0.00 0.00 61 1019.8
20211201165313 47 199 0.0 0.0 0.00 0.00 0.00 60 1020.1
20211201164316 47 199 0.0 0.0 0.00 0.00 0.00 62 1020.3
20211201163316 46 234 0.0 0.0 0.00 0.00 0.00 63 1020.4
20211201162325 46 222 0.0 0.0 0.00 0.00 0.00 63 1020.5
20211201161328 46 220 0.0 0.0 0.00 0.00 0.00 65 1020.6
20211201160324 45 307 0.0 0.0 0.00 0.00 0.00 65 1021.0
20211201155311 45 307 0.0 0.0 0.00 0.00 0.00 65 1021.4
20211201154336 45 307 0.0 0.0 0.00 0.00 0.00 65 1021.4
20211201153323 45 309 0.0 0.0 0.00 0.00 0.00 65 1021.1
20211201152319 44 309 0.0 0.0 0.00 0.00 0.00 66 1021.2
20211201151313 45 309 0.0 0.0 0.00 0.00 0.00 66 1021.6
20211201150316 45 315 0.0 0.0 0.00 0.00 0.00 67 1021.5
20211201145315 44 289 0.0 1.0 0.00 0.00 0.00 69 1021.6
20211201144339 43 277 0.0 0.0 0.00 0.00 0.00 69 1021.5
20211201143323 43 234 0.0 0.0 0.00 0.00 0.00 71 1021.5
20211201142319 42 257 0.0 0.0 0.00 0.00 0.00 73 1021.5
20211201141338 42 257 0.0 0.0 0.00 0.00 0.00 72 1021.3
20211201140335 42 206 0.0 0.0 0.00 0.00 0.00 72 1021.1
20211201135326 41 203 0.0 0.0 0.00 0.00 0.00 75 1020.6
20211201134318 40 201 0.0 0.0 0.00 0.00 0.00 79 1020.6
20211201133314 39 197 0.0 1.0 0.00 0.00 0.00 78 1020.1
20211201132322 38 185 0.0 0.0 0.00 0.00 0.00 79 1020.2
20211201131337 37 141 0.0 0.0 0.00 0.00 0.00 80 1020.4
20211201130312 37 144 0.0 0.0 0.00 0.00 0.00 79 1020.6
20211201125331 37 135 0.0 0.0 0.00 0.00 0.00 80 1020.6
20211201124313 36 135 0.0 0.0 0.00 0.00 0.00 83 1020.6
20211201123334 33 117 0.0 0.0 0.00 0.00 0.00 86 1020.4
20211201122320 33 74 0.0 0.0 0.00 0.00 0.00 84 1020.4
20211201121338 34 74 0.0 0.0 0.00 0.00 0.00 85 1020.1
20211201120334 33 74 0.0 0.0 0.00 0.00 0.00 86 1020.2
20211201115320 32 74 0.0 0.0 0.00 0.00 0.00 84 1019.8
20211201114339 33 74 0.0 0.0 0.00 0.00 0.00 85 1019.8
20211201113315 33 77 0.0 2.0 0.00 0.00 0.00 85 1019.5
20211201112339 32 30 0.0 0.0 0.00 0.00 0.00 85 1019.6
20211201111331 32 284 0.0 0.0 0.00 0.00 0.00 83 1019.5
20211201110320 34 284 0.0 1.0 0.00 0.00 0.00 82 1019.4
20211201105336 34 284 0.0 0.0 0.00 0.00 0.00 84 1019.5
20211201104313 33 285 0.0 1.0 0.00 0.00 0.00 78 1019.5
20211201103336 36 284 0.0 0.0 0.00 0.00 0.00 80 1019.5
20211201102331 37 219 0.0 3.0 0.00 0.00 0.00 80 1019.5
20211201101322 34 173 0.0 0.0 0.00 0.00 0.00 84 1019.3
20211201100319 33 244 0.0 0.0 0.00 0.00 0.00 81 1019.0
20211201095312 34 244 0.0 1.0 0.00 0.00 0.00 80 1018.8
20211201094314 35 360 0.0 0.0 0.00 0.00 0.00 81 1018.5
20211201093338 35 90 0.0 0.0 0.00 0.00 0.00 79 1018.4
20211201092313 37 90 0.0 0.0 0.00 0.00 0.00 76 1018.2
20211201091330 37 71 0.0 0.0 0.00 0.00 0.00 79 1018.0
20211201090330 35 52 0.0 0.0 0.00 0.00 0.00 80 1017.8
20211201085322 36 328 0.0 0.0 0.00 0.00 0.00 77 1017.6
20211201084339 38 322 0.0 0.0 0.00 0.00 0.00 75 1017.7
20211201083335 38 169 0.0 0.0 0.00 0.00 0.00 75 1017.6
20211201082332 38 169 0.0 0.0 0.00 0.00 0.00 76 1017.6
20211201081337 37 169 0.0 0.0 0.00 0.00 0.00 78 1017.4
20211201080318 36 169 0.0 0.0 0.00 0.00 0.00 80 1017.2
20211201075337 36 169 0.0 0.0 0.00 0.00 0.00 77 1017.2
20211201074312 37 169 0.0 0.0 0.00 0.00 0.00 77 1017.2
20211201073329 36 166 0.0 0.0 0.00 0.00 0.00 76 1016.9
20211201072330 38 134 0.0 0.0 0.00 0.00 0.00 75 1016.7
20211201071333 38 134 0.0 0.0 0.00 0.00 0.00 74 1016.5
20211201070330 38 134 0.0 0.0 0.00 0.00 0.00 77 1016.1
20211201065320 37 135 0.0 0.0 0.00 0.00 0.00 75 1015.8
20211201064314 38 135 0.0 0.0 0.00 0.00 0.00 73 1015.6
20211201063333 39 135 0.0 0.0 0.00 0.00 0.00 71 1015.4
20211201062319 39 125 0.0 0.0 0.00 0.00 0.00 73 1015.3
20211201061316 39 125 0.0 0.0 0.00 0.00 0.00 72 1015.2